sat.trackr.live / text

‹ back to catalog

STARLINK-36435

NORAD 67568 · 2026-016H

PAYLOAD ACTIVE UNKNOWN

§ Identity

Operator
Country
US
Launch date
2026-01-25
Launch site
AFWTR
Launch vehicle
Mass (kg)
RCS (m²)

Purposes: comms

External: N2YO · Heavens-Above · Gunter

§ Orbital elements

Epoch: 2026-05-25T03:03:16.274016Z

Period
93.91 min
Inclination
97.2846°
Eccentricity
0.0000618
Mean motion
15.33455409 rev/d
Perigee alt
465.1 km
Apogee alt
465.9 km
Semi-major
6,843.6 km
B*
5.1323e-4
RAAN
205.5378°
Arg perigee
57.2633°
Mean anomaly
302.8669°
Rev number
1,858

§ Raw data

STARLINK-364351 67568U 26016H   26145.12727169  .00016535  00000+0  51323-3 0  99962 67568  97.2846 205.5378 0000618  57.2633 302.8669 15.33455409 18586

JSON: /api/v1/satellites/67568 · /tle

For live sub-satellite position, see the globe view (requires WebGL).

§ Visibility from observer

Set your observer location to see the next 7 days of passes ≥ 10°. The values pass through the URL so the page stays shareable.

No JS? Fill the form by hand. The geolocation button needs JavaScript.